Flag for Uganda Weather past 2 weeks in Entebbe, Uganda

Now
81 °F

Passing clouds.


Feels Like: 82 °F
Forecast: 64 / 78 °F
Wind: 12 mph from North

Location: Entebbe Airport

Current Time: Aug 23, 2014 at 6:24:07 PM

Latest Report: Aug 23, 2014 at 5:00 PM


Visibility: 6 mi

Pressure: 29.92 "Hg

Humidity: 58%

Dew point: 64 °F

Location of EntebbeLocation

Historic Weather in Entebbe — Graph

°F

Entebbe temperature yesterday

Maximum temperature yesterday: 79 °F (at 1:00 PM)
Minimum temperature yesterday: 68 °F (at 12:00 AM)
Average temperature yesterday: 74 °F

Past Weeks' High & Low Weather Summary

 TemperatureHumidityPressure
High82 °F (Aug 23, 2:00 PM)100% (Aug 9, 6:00 AM)30.18 "Hg (Aug 9, 6:00 AM)
Low57 °F (Aug 17, 5:00 PM)54% (Aug 20, 11:00 AM)29.95 "Hg (Aug 22, 5:00 PM)
Average72 °F80%30.06 "Hg
* Reported Aug 8 4:00 PM — Aug 23 4:00 PM, Entebbe, Weather by CustomWeather, © 2014

Note: Actual official high and low records may vary slightly from our data, if they occured in-between our weather recording intervals... More about our weather records

Advertising

Entebbe weather history for previous 24 hours

 ConditionsComfort  
Time TempWeatherWind HumidityBarometerVisibility
4:00 PM
Aug 23
82 °FPassing clouds.9 mph55%29.95 "Hg6 mi
3:00 PM79 °FPassing clouds.12 mph70%30.01 "Hg6 mi
2:00 PM82 °FPassing clouds.14 mph58%30.01 "Hg6 mi
1:00 PM79 °FPassing clouds.14 mph65%30.04 "Hg6 mi
12:00 PM77 °FScattered clouds.12 mph69%30.07 "Hg6 mi
11:00 AM77 °FScattered clouds.13 mph65%30.09 "Hg6 mi
10:00 AM70 °FScattered clouds.14 mph83%30.07 "Hg6 mi
7:00 AM66 °FScattered clouds.12 mph94%30.04 "Hg6 mi
6:00 AM66 °FPassing clouds.12 mph94%30.01 "Hg6 mi
5:00 AM66 °FPassing clouds.15 mph88%30.01 "Hg6 mi
4:00 AM66 °FPassing clouds.3 mph94%29.98 "Hg6 mi
2:00 AM68 °FPassing clouds.12 mph88%30.01 "HgN/A
10:00 PM
Aug 22
72 °FPassing clouds.6 mph78%30.04 "HgN/A
9:00 PM73 °FMild.5 mph78%30.04 "Hg6 mi
8:00 PM73 °FPassing clouds.5 mph89%30.01 "HgN/A
6:00 PM77 °FPassing clouds.7 mph69%29.95 "HgN/A
Weather by CustomWeather, © 2014

See weather overviewHow to use our weather pages